Flag for U.S.A. Weather past 2 weeks in Everett, Washington, U.S.A.

Now
50 °F

Passing clouds.


Feels Like: 47 °F
Forecast: 48 / 61 °F
Wind: 8 mph from Northeast

Location: Snohomish County Airport

Current Time: Apr 21, 2015 at 6:59:53 AM

Latest Report: Apr 21, 2015 at 5:53 AM


Visibility: 10 mi

Pressure: 29.89 "Hg

Humidity: 86%

Dew point: 46 °F

Location of EverettLocation

Historic Weather in Everett — Graph

°F

Everett temperature yesterday

Maximum temperature yesterday: 68 °F (at 2:53 PM)
Minimum temperature yesterday: 46 °F (at 3:53 AM)
Average temperature yesterday: 58 °F

Past Weeks' High & Low Weather Summary

 TemperatureHumidityPressure
High68 °F (Apr 20, 2:53 PM)97% (Apr 17, 3:53 AM)30.56 "Hg (Apr 17, 3:53 AM)
Low38 °F (Apr 14, 3:53 AM)35% (Apr 8, 4:53 PM)29.75 "Hg (Apr 6, 5:53 AM)
Average49 °F70%30.10 "Hg
* Reported Apr 6 5:53 AM — Apr 21 5:53 AM, Everett, Weather by CustomWeather, © 2015

Note: Actual official high and low records may vary slightly from our data, if they occured in-between our weather recording intervals... More about our weather records

Advertising

Everett weather history for previous 24 hours

 ConditionsComfort  
Time TempWeatherWind HumidityBarometerVisibility
5:53 AM
Tue, Apr 21
50 °FPassing clouds.8 mph86%29.89 "Hg10 mi
4:53 AM50 °FClear.6 mph86%29.88 "Hg10 mi
3:53 AM53 °FClear.7 mph69%29.88 "Hg10 mi
2:53 AM54 °FClear.6 mph67%29.87 "Hg10 mi
1:53 AM53 °FClear.7 mph69%29.87 "Hg10 mi
12:53 AM54 °FClear.7 mph67%29.88 "Hg10 mi
11:53 PM
Mon, Apr 20
55 °FClear.8 mph64%29.87 "Hg10 mi
10:53 PM54 °FClear.8 mph69%29.87 "Hg10 mi
9:53 PM54 °FClear.9 mph69%29.87 "Hg10 mi
8:53 PM58 °FSunny.6 mph65%29.86 "Hg10 mi
7:53 PM63 °FSunny.3 mph47%29.85 "Hg10 mi
6:53 PM66 °FSunny.5 mph42%29.85 "Hg10 mi
5:53 PM68 °FSunny.3 mph42%29.86 "Hg10 mi
4:53 PM68 °FSunny.3 mph40%29.87 "Hg10 mi
3:53 PM68 °FSunny.7 mph40%29.88 "Hg10 mi
2:53 PM68 °FSunny.7 mph45%29.90 "Hg10 mi
1:53 PM66 °FSunny.5 mph49%29.92 "Hg10 mi
12:53 PM64 °FSunny.5 mph54%29.93 "Hg10 mi
11:53 AM63 °FSunny.6 mph52%29.94 "Hg10 mi
10:53 AM61 °FSunny.3 mph54%29.95 "Hg10 mi
9:53 AM58 °FSunny.5 mph60%29.96 "Hg10 mi
8:53 AM56 °FSunny.No wind62%29.96 "Hg10 mi
7:53 AM54 °FSunny.No wind72%29.97 "Hg10 mi
6:53 AM48 °FClear.3 mph80%29.97 "Hg10 mi
Weather by CustomWeather, © 2015

See weather overviewHow to use our weather pages